Astra — PB4187 — position and weather

sailwx.info

Track history (hours):
 
Tides and Currents Weather Stations Pressure Air Temp Water Temp Dewpoint Dewpoint Depression Visibility Wind Speed Wind Dir Waves Ship Positions

Astra

Last reported at 2014-Oct-26 04:11 UTC. Time now 2014-Oct-26 07:44 UTC.
Position N 51°30' E 006°57'.

Length 110 m; draft 1.4 m.

Type: Tanker. MMSI: 244650752.

Date/timePositionNaut miles runAvg speedWind from/ knotsBaromVisibWave heightAir tempDewpointWater temp
2014-Oct-26 04:11N 51°30' E 006°57'0 0.0
2014-Oct-26 03:29N 51°30' E 006°57'0 0.0
2014-Oct-26 02:28N 51°30' E 006°57'0 0.0
2014-Oct-26 01:33N 51°30' E 006°57'0 0.0
2014-Oct-26 00:33N 51°30' E 006°57'0 0.0
2014-Oct-25 23:30N 51°30' E 006°57'0 0.0
2014-Oct-25 10:29N 51°30' E 006°57'0 0.0
2014-Oct-24 16:27N 51°30' E 006°58'14 3.6
2014-Oct-24 12:33N 51°22' E 006°40'8 8.4
2014-Oct-24 11:33N 51°15' E 006°46'6 6.1
2014-Oct-24 10:33N 51°09' E 006°48'6 6.1
2014-Oct-24 09:32N 51°04' E 006°54'  
2014-Oct-21 17:33N 49°23' E 008°30'7 6.8
2014-Oct-21 16:33N 49°16' E 008°27'9 8.5
2014-Oct-21 15:33N 49°08' E 008°22'4 4.4
2014-Oct-21 14:33N 49°04' E 008°20'0 0.0
2014-Oct-21 13:33N 49°04' E 008°20'0 0.0
2014-Oct-21 12:33N 49°04' E 008°20'0 0.0
2014-Oct-21 11:33N 49°04' E 008°20'0 0.0
2014-Oct-21 10:33N 49°04' E 008°20'0 0.0
2014-Oct-21 09:33N 49°04' E 008°20'0 0.0
2014-Oct-21 08:33N 49°04' E 008°20'0 0.0
2014-Oct-21 07:33N 49°04' E 008°20'0 0.0
2014-Oct-21 06:33N 49°04' E 008°20'0 0.0
2014-Oct-21 05:33N 49°04' E 008°20'0 0.0
2014-Oct-21 04:33N 49°04' E 008°20'0 0.0
2014-Oct-21 03:33N 49°04' E 008°20'0 0.0
2014-Oct-21 02:33N 49°04' E 008°20'0 0.0
2014-Oct-21 01:33N 49°04' E 008°20'0 0.3
2014-Oct-21 00:33N 49°04' E 008°20'0 0.0
2014-Oct-20 23:33N 49°04' E 008°20'0 0.0
2014-Oct-20 22:33N 49°04' E 008°20'0 0.0
2014-Oct-20 21:33N 49°04' E 008°20'0 0.0
2014-Oct-20 20:33N 49°04' E 008°20'0 0.0
2014-Oct-20 19:33N 49°04' E 008°20'0 0.0
2014-Oct-20 18:33N 49°04' E 008°20'0 0.0
2014-Oct-20 17:33N 49°04' E 008°20'0 0.0
2014-Oct-20 16:33N 49°04' E 008°20'0 0.0
2014-Oct-20 15:33N 49°04' E 008°20'0 0.0
2014-Oct-20 14:33N 49°04' E 008°20'0 0.0
2014-Oct-20 13:33N 49°04' E 008°20'0 0.0
2014-Oct-20 12:33N 49°04' E 008°20'0 0.0
2014-Oct-20 11:33N 49°04' E 008°20'0 0.0
2014-Oct-20 10:33N 49°04' E 008°20'0 0.2
2014-Oct-20 09:33N 49°04' E 008°20'0 0.2
2014-Oct-20 08:33N 49°04' E 008°20'0 0.0
2014-Oct-20 07:33N 49°04' E 008°20'0 0.0
2014-Oct-20 06:34N 49°04' E 008°20'0 0.0
2014-Oct-20 05:33N 49°04' E 008°20'0 0.0
2014-Oct-20 04:33N 49°04' E 008°20'0 0.0
2014-Oct-20 03:33N 49°04' E 008°20'0 0.0
2014-Oct-20 02:34N 49°04' E 008°20'0 0.0
2014-Oct-20 01:33N 49°04' E 008°20'0 0.0
2014-Oct-20 00:33N 49°04' E 008°20'0 0.0
2014-Oct-19 23:33N 49°04' E 008°20'0 0.2
2014-Oct-19 22:33N 49°04' E 008°20'0 0.0
2014-Oct-19 21:33N 49°04' E 008°20'0 0.0
2014-Oct-19 20:33N 49°04' E 008°20'0 0.0
2014-Oct-19 19:33N 49°04' E 008°20'0 0.0
2014-Oct-19 18:33N 49°04' E 008°20'0 0.0
2014-Oct-19 17:33N 49°04' E 008°20'0 0.0
2014-Oct-19 16:33N 49°04' E 008°20'0 0.0
2014-Oct-19 15:33N 49°04' E 008°20'0 0.0
2014-Oct-19 14:33N 49°04' E 008°20'0 0.0
2014-Oct-19 13:33N 49°04' E 008°20'0 0.0
2014-Oct-19 12:33N 49°04' E 008°20'0 0.0
2014-Oct-19 11:33N 49°04' E 008°20'0 0.0
2014-Oct-19 10:33N 49°04' E 008°20'0 0.0
2014-Oct-19 09:33N 49°04' E 008°20'0 0.1
2014-Oct-19 08:33N 49°04' E 008°20'0 0.0
2014-Oct-19 07:33N 49°04' E 008°20'0 0.0
2014-Oct-19 06:33N 49°04' E 008°20'0 0.0
2014-Oct-19 05:33N 49°04' E 008°20'0 0.0
2014-Oct-19 04:33N 49°04' E 008°20'0 0.0
2014-Oct-19 03:33N 49°04' E 008°20'0 0.0
2014-Oct-19 02:33N 49°04' E 008°20'0 0.0
2014-Oct-19 01:33N 49°04' E 008°20'0 0.0
2014-Oct-19 00:33N 49°04' E 008°20'0 0.0
2014-Oct-18 23:33N 49°04' E 008°20'0 0.0
2014-Oct-18 22:33N 49°04' E 008°20'0 0.0
2014-Oct-18 21:33N 49°04' E 008°20'0 0.0
2014-Oct-18 20:33N 49°04' E 008°20'0 0.0
2014-Oct-18 19:33N 49°04' E 008°20'0 0.0
2014-Oct-18 18:33N 49°04' E 008°20'3 2.7
2014-Oct-18 17:33N 49°07' E 008°22'4 4.4
2014-Oct-18 16:33N 49°11' E 008°23'5 4.5
2014-Oct-18 15:33N 49°15' E 008°26'4 3.7
2014-Oct-18 14:33N 49°19' E 008°28'123 3.7
2014-Oct-17 05:05N 51°05' E 006°51'2 3.8
2014-Oct-17 04:33N 51°07' E 006°52'3 2.6
2014-Oct-17 03:33N 51°09' E 006°49'4 3.5
2014-Oct-17 02:33N 51°11' E 006°45'3 2.6
2014-Oct-17 01:33N 51°13' E 006°46'4 4.2
2014-Oct-17 00:33N 51°17' E 006°43'4 3.9
2014-Oct-16 23:33N 51°21' E 006°41'5 3.6
2014-Oct-16 22:17N 51°25' E 006°45'42 4.2
2014-Oct-16 12:14N 51°51' E 005°52'4 5.9
2014-Oct-16 11:33N 51°53' E 005°46'6 6.3
2014-Oct-16 10:33N 51°54' E 005°36'5 5.4
2014-Oct-16 09:33N 51°54' E 005°27'6 5.7
2014-Oct-16 08:33N 51°58' E 005°20'4 3.8
2014-Oct-16 07:33N 51°59' E 005°14'6 5.8
2014-Oct-16 06:33N 52°03' E 005°07'7 6.5
2014-Oct-16 05:33N 52°08' E 005°02'8 7.8
2014-Oct-16 04:33N 52°16' E 005°01'  
Track history (hours):
 
Tides and Currents Weather Stations Pressure Air Temp Water Temp Dewpoint Dewpoint Depression Visibility Wind Speed Wind Dir Waves Ship Positions

Astra

Last reported at 2014-Oct-26 04:11 UTC. Time now 2014-Oct-26 07:44 UTC.
Position N 51°30' E 006°57'.

Length 110 m; draft 1.4 m.

Type: Tanker. MMSI: 244650752.

Date/timePositionNaut miles runAvg speedWind from/ knotsBaromVisibWave heightAir tempDewpointWater temp
2014-Oct-26 04:11N 51°30' E 006°57'0 0.0
2014-Oct-26 03:29N 51°30' E 006°57'0 0.0
2014-Oct-26 02:28N 51°30' E 006°57'0 0.0
2014-Oct-26 01:33N 51°30' E 006°57'0 0.0
2014-Oct-26 00:33N 51°30' E 006°57'0 0.0
2014-Oct-25 23:30N 51°30' E 006°57'0 0.0
2014-Oct-25 10:29N 51°30' E 006°57'0 0.0
2014-Oct-24 16:27N 51°30' E 006°58'14 3.6
2014-Oct-24 12:33N 51°22' E 006°40'8 8.4
2014-Oct-24 11:33N 51°15' E 006°46'6 6.1
2014-Oct-24 10:33N 51°09' E 006°48'6 6.1
2014-Oct-24 09:32N 51°04' E 006°54'  
2014-Oct-21 17:33N 49°23' E 008°30'7 6.8
2014-Oct-21 16:33N 49°16' E 008°27'9 8.5
2014-Oct-21 15:33N 49°08' E 008°22'4 4.4
2014-Oct-21 14:33N 49°04' E 008°20'0 0.0
2014-Oct-21 13:33N 49°04' E 008°20'0 0.0
2014-Oct-21 12:33N 49°04' E 008°20'0 0.0
2014-Oct-21 11:33N 49°04' E 008°20'0 0.0
2014-Oct-21 10:33N 49°04' E 008°20'0 0.0
2014-Oct-21 09:33N 49°04' E 008°20'0 0.0
2014-Oct-21 08:33N 49°04' E 008°20'0 0.0
2014-Oct-21 07:33N 49°04' E 008°20'0 0.0
2014-Oct-21 06:33N 49°04' E 008°20'0 0.0
2014-Oct-21 05:33N 49°04' E 008°20'0 0.0
2014-Oct-21 04:33N 49°04' E 008°20'0 0.0
2014-Oct-21 03:33N 49°04' E 008°20'0 0.0
2014-Oct-21 02:33N 49°04' E 008°20'0 0.0
2014-Oct-21 01:33N 49°04' E 008°20'0 0.3
2014-Oct-21 00:33N 49°04' E 008°20'0 0.0
2014-Oct-20 23:33N 49°04' E 008°20'0 0.0
2014-Oct-20 22:33N 49°04' E 008°20'0 0.0
2014-Oct-20 21:33N 49°04' E 008°20'0 0.0
2014-Oct-20 20:33N 49°04' E 008°20'0 0.0
2014-Oct-20 19:33N 49°04' E 008°20'0 0.0
2014-Oct-20 18:33N 49°04' E 008°20'0 0.0
2014-Oct-20 17:33N 49°04' E 008°20'0 0.0
2014-Oct-20 16:33N 49°04' E 008°20'0 0.0
2014-Oct-20 15:33N 49°04' E 008°20'0 0.0
2014-Oct-20 14:33N 49°04' E 008°20'0 0.0
2014-Oct-20 13:33N 49°04' E 008°20'0 0.0
2014-Oct-20 12:33N 49°04' E 008°20'0 0.0
2014-Oct-20 11:33N 49°04' E 008°20'0 0.0
2014-Oct-20 10:33N 49°04' E 008°20'0 0.2
2014-Oct-20 09:33N 49°04' E 008°20'0 0.2
2014-Oct-20 08:33N 49°04' E 008°20'0 0.0
2014-Oct-20 07:33N 49°04' E 008°20'0 0.0
2014-Oct-20 06:34N 49°04' E 008°20'0 0.0
2014-Oct-20 05:33N 49°04' E 008°20'0 0.0
2014-Oct-20 04:33N 49°04' E 008°20'0 0.0
2014-Oct-20 03:33N 49°04' E 008°20'0 0.0
2014-Oct-20 02:34N 49°04' E 008°20'0 0.0
2014-Oct-20 01:33N 49°04' E 008°20'0 0.0
2014-Oct-20 00:33N 49°04' E 008°20'0 0.0
2014-Oct-19 23:33N 49°04' E 008°20'0 0.2
2014-Oct-19 22:33N 49°04' E 008°20'0 0.0
2014-Oct-19 21:33N 49°04' E 008°20'0 0.0
2014-Oct-19 20:33N 49°04' E 008°20'0 0.0
2014-Oct-19 19:33N 49°04' E 008°20'0 0.0
2014-Oct-19 18:33N 49°04' E 008°20'0 0.0
2014-Oct-19 17:33N 49°04' E 008°20'0 0.0
2014-Oct-19 16:33N 49°04' E 008°20'0 0.0
2014-Oct-19 15:33N 49°04' E 008°20'0 0.0
2014-Oct-19 14:33N 49°04' E 008°20'0 0.0
2014-Oct-19 13:33N 49°04' E 008°20'0 0.0
2014-Oct-19 12:33N 49°04' E 008°20'0 0.0
2014-Oct-19 11:33N 49°04' E 008°20'0 0.0
2014-Oct-19 10:33N 49°04' E 008°20'0 0.0
2014-Oct-19 09:33N 49°04' E 008°20'0 0.1
2014-Oct-19 08:33N 49°04' E 008°20'0 0.0
2014-Oct-19 07:33N 49°04' E 008°20'0 0.0
2014-Oct-19 06:33N 49°04' E 008°20'0 0.0
2014-Oct-19 05:33N 49°04' E 008°20'0 0.0
2014-Oct-19 04:33N 49°04' E 008°20'0 0.0
2014-Oct-19 03:33N 49°04' E 008°20'0 0.0
2014-Oct-19 02:33N 49°04' E 008°20'0 0.0
2014-Oct-19 01:33N 49°04' E 008°20'0 0.0
2014-Oct-19 00:33N 49°04' E 008°20'0 0.0
2014-Oct-18 23:33N 49°04' E 008°20'0 0.0
2014-Oct-18 22:33N 49°04' E 008°20'0 0.0
2014-Oct-18 21:33N 49°04' E 008°20'0 0.0
2014-Oct-18 20:33N 49°04' E 008°20'0 0.0
2014-Oct-18 19:33N 49°04' E 008°20'0 0.0
2014-Oct-18 18:33N 49°04' E 008°20'3 2.7
2014-Oct-18 17:33N 49°07' E 008°22'4 4.4
2014-Oct-18 16:33N 49°11' E 008°23'5 4.5
2014-Oct-18 15:33N 49°15' E 008°26'4 3.7
2014-Oct-18 14:33N 49°19' E 008°28'123 3.7
2014-Oct-17 05:05N 51°05' E 006°51'2 3.8
2014-Oct-17 04:33N 51°07' E 006°52'3 2.6
2014-Oct-17 03:33N 51°09' E 006°49'4 3.5
2014-Oct-17 02:33N 51°11' E 006°45'3 2.6
2014-Oct-17 01:33N 51°13' E 006°46'4 4.2
2014-Oct-17 00:33N 51°17' E 006°43'4 3.9
2014-Oct-16 23:33N 51°21' E 006°41'5 3.6
2014-Oct-16 22:17N 51°25' E 006°45'42 4.2
2014-Oct-16 12:14N 51°51' E 005°52'4 5.9
2014-Oct-16 11:33N 51°53' E 005°46'6 6.3
2014-Oct-16 10:33N 51°54' E 005°36'5 5.4
2014-Oct-16 09:33N 51°54' E 005°27'6 5.7
2014-Oct-16 08:33N 51°58' E 005°20'4 3.8
2014-Oct-16 07:33N 51°59' E 005°14'6 5.8
2014-Oct-16 06:33N 52°03' E 005°07'7 6.5
2014-Oct-16 05:33N 52°08' E 005°02'8 7.8
2014-Oct-16 04:33N 52°16' E 005°01'  

Dump ship's entire track history